Weather History for Bozeman, MT

Change the Weather History Date:

Monday, June 24, 2013

  Actual Average Record
Temperature  
Mean Temperature 66 °F 64 °F  
Max Temperature 84 °F 80 °F 97 °F (2012)
Min Temperature 48 °F 48 °F 34 °F (1967)
Degree Days  
Heating Degree Days 0    
Month to date heating degree days 167  
Since 1 June heating degree days 167  
Since 1 July heating degree days 8019  
Cooling Degree Days 1    
Month to date cooling degree days 4  
Year to date cooling degree days 6  
Since 1 June cooling degree days 4  
Growing Degree Days 15 (Base 50)    
Moisture  
Dew Point 45 °F    
Average Humidity 52    
Maximum Humidity 86    
Minimum Humidity 18    
Precipitation  
Precipitation 0.02 in 0.07 in 0.87 in (1969)
Month to date precipitation 2.44 2.06  
Year to date precipitation 6.33 7.96  
Snow  
Snow 0.00 in 0.00 in 0.00 in (2000)
Month to date snowfall 0.0 0.3  
Since 1 June snowfall 0.0 0.3  
Since 1 July snowfall 24.6 40.2  
Snow Depth 0.00 in    
Sea Level Pressure  
Sea Level Pressure 29.61 in    
Wind  
Wind Speed 7 mph (SSW)    
Max Wind Speed 21 mph    
Max Gust Speed 28 mph    
Visibility 10 miles    
Events      
T = Trace of Precipitation, MM = Missing Value Source: NWS Daily Summary

Daily Weather History Graph

Daily Weather History Graph

Search for Another Location

Airport:

Trip Planner

Search our weather history database for the weather conditions in past years. The results will help you decide how hot, cold, wet, or windy it might be!

Date:

Astronomy

Jun. 24, 2013 Rise Set
Actual Time 5:35 AM MDT 9:18 PM MDT
Civil Twilight 4:57 AM MDT 9:56 PM MDT
Nautical Twilight 4:05 AM MDT 10:48 PM MDT
Astronomical Twilight 2:54 AM MDT 11:59 PM MDT
Moon 10:15 PM MDT (6/24) 7:13 AM MDT (6/24)
Length of Visible Light 16h 59m
Length of Day
15h 43m
Full, 97% of the Moon is Illuminated
Jun 24
Full
Jun 29
Last Quarter
Jul 8
New
Jul 15
First Quarter
Jul 22
Full

Hourly Weather History & Observations

Time (MDT) Temp. Dew Point Humidity Pressure Visibility Wind Dir Wind Speed Gust Speed Precip Events Conditions
12:56 AM 55.9 °F 42.1 °F 60% 29.67 in 10.0 mi West 4.6 mph - N/A   Clear
1:56 AM 57.0 °F 42.1 °F 57% 29.66 in 10.0 mi WSW 8.1 mph - N/A   Clear
2:56 AM 53.1 °F 42.1 °F 66% 29.66 in 10.0 mi North 4.6 mph - N/A   Clear
3:56 AM 53.1 °F 44.1 °F 71% 29.65 in 10.0 mi SSW 3.5 mph - N/A   Clear
4:56 AM 48.0 °F 44.1 °F 86% 29.65 in 10.0 mi SE 5.8 mph - N/A   Clear
5:56 AM 50.0 °F 43.0 °F 77% 29.64 in 10.0 mi South 4.6 mph - N/A   Clear
6:56 AM 48.9 °F 44.1 °F 83% 29.64 in 10.0 mi Calm Calm - N/A   Clear
7:56 AM 55.9 °F 46.0 °F 69% 29.63 in 10.0 mi ENE 4.6 mph - N/A   Clear
8:56 AM 59.0 °F 44.1 °F 58% 29.62 in 10.0 mi North 4.6 mph - N/A   Clear
9:56 AM 62.1 °F 46.0 °F 56% 29.61 in 10.0 mi Variable 3.5 mph - N/A   Clear
10:56 AM 64.9 °F 46.9 °F 52% 29.61 in 10.0 mi NNW 3.5 mph - N/A   Clear
11:56 AM 68.0 °F 45.0 °F 43% 29.60 in 10.0 mi Calm Calm - N/A   Clear
12:56 PM 70.0 °F 46.9 °F 44% 29.59 in 10.0 mi ENE 4.6 mph - N/A   Partly Cloudy
1:56 PM 73.0 °F 48.0 °F 41% 29.56 in 10.0 mi SE 12.7 mph - N/A   Clear
2:56 PM 82.0 °F 39.0 °F 22% 29.51 in 10.0 mi South 18.4 mph 25.3 mph N/A   Clear
3:56 PM 82.0 °F 36.0 °F 19% 29.52 in 10.0 mi SSW 12.7 mph 19.6 mph N/A   Scattered Clouds
4:56 PM 77.0 °F 44.1 °F 31% 29.55 in 10.0 mi SW 6.9 mph - N/A   Mostly Cloudy
5:56 PM 71.1 °F 50.0 °F 47% 29.57 in 10.0 mi NNW 5.8 mph - N/A   Mostly Cloudy
6:56 PM 75.0 °F 39.0 °F 27% 29.56 in 10.0 mi WSW 17.3 mph 27.6 mph N/A   Scattered Clouds
7:56 PM 66.9 °F 46.0 °F 47% 29.59 in 10.0 mi NW 6.9 mph - N/A   Partly Cloudy
8:56 PM 66.9 °F 46.0 °F 47% 29.66 in 10.0 mi SSW 10.4 mph 16.1 mph N/A   Overcast
9:56 PM 61.0 °F 50.0 °F 67% 29.66 in 10.0 mi SSE 6.9 mph - 0.00 in   Mostly Cloudy
10:56 PM 61.0 °F 48.9 °F 64% 29.67 in 10.0 mi SSW 5.8 mph - N/A   Overcast
11:56 PM 59.0 °F 50.0 °F 72% 29.67 in 10.0 mi SSE 5.8 mph - N/A   Overcast